ACA1345 MYNN-CYHZ

Flight info

Callsign ACA1345
Flight time N/A
Altitude 31000
Route INGRA G437 ELBOW DCT JAZZI/N0470F330 DCT ELERI PEGGY5
Aircraft B738/M-SDE2E3FGHIRWXY/LB1

Departure

Time N/A
Airport Lynden Pindling International Airport (MYNN)

Arrival

Time 2026-05-07 01:26
Airport Halifax / Stanfield International Airport (CYHZ)
Time Latitude Longitude Altitude Speed Heading
2026-05-07 00:59 43.08169 -64.32897 33035 ft 482 kts 360°
2026-05-07 00:59 43.11510 -64.32491 33041 ft 483 kts
2026-05-07 01:00 43.18208 -64.31677 33037 ft 484 kts
2026-05-07 01:00 43.24877 -64.30864 33033 ft 485 kts 360°
2026-05-07 01:01 43.31598 -64.30043 32884 ft 486 kts
2026-05-07 01:01 43.34963 -64.29631 32620 ft 485 kts
2026-05-07 01:01 43.38327 -64.29219 32379 ft 486 kts
2026-05-07 01:01 43.41699 -64.28806 32136 ft 487 kts
2026-05-07 01:02 43.45086 -64.28391 31891 ft 489 kts
2026-05-07 01:02 43.48478 -64.27975 31644 ft 491 kts
2026-05-07 01:02 43.51881 -64.27557 31397 ft 492 kts
2026-05-07 01:02 43.55249 -64.27142 31149 ft 493 kts
2026-05-07 01:03 43.58663 -64.26720 30356 ft 493 kts
2026-05-07 01:03 43.62081 -64.26298 29588 ft 493 kts
2026-05-07 01:03 43.65501 -64.25875 28745 ft 494 kts
2026-05-07 01:03 43.68934 -64.25451 27868 ft 496 kts
2026-05-07 01:04 43.72375 -64.25025 26954 ft 498 kts
2026-05-07 01:04 43.75832 -64.24597 26006 ft 500 kts
2026-05-07 01:04 43.79302 -64.24166 25173 ft 500 kts
2026-05-07 01:04 43.82748 -64.23736 24504 ft 495 kts
2026-05-07 01:05 43.86172 -64.23308 23822 ft 492 kts
2026-05-07 01:05 43.89523 -64.22889 23153 ft 488 kts
2026-05-07 01:05 43.92892 -64.22468 22475 ft 485 kts
2026-05-07 01:05 43.96239 -64.22050 21813 ft 481 kts
2026-05-07 01:06 43.99554 -64.21636 21145 ft 477 kts
2026-05-07 01:06 44.02848 -64.21224 20497 ft 473 kts
2026-05-07 01:06 44.06113 -64.20815 19843 ft 469 kts
2026-05-07 01:06 44.09352 -64.20409 19194 ft 465 kts
2026-05-07 01:07 44.12561 -64.20006 18547 ft 461 kts
2026-05-07 01:07 44.15744 -64.19606 17909 ft 457 kts
2026-05-07 01:07 44.18857 -64.19215 17238 ft 454 kts
2026-05-07 01:07 44.21999 -64.18819 16577 ft 451 kts
2026-05-07 01:08 44.25109 -64.18428 15933 ft 447 kts
2026-05-07 01:08 44.28196 -64.18038 15294 ft 443 kts
2026-05-07 01:08 44.31254 -64.17652 14665 ft 439 kts
2026-05-07 01:08 44.34287 -64.17269 14043 ft 435 kts
2026-05-07 01:09 44.37290 -64.16884 13431 ft 431 kts
2026-05-07 01:09 44.40184 -64.15862 12803 ft 431 kts 25°
2026-05-07 01:09 44.42647 -64.13650 12391 ft 423 kts 42°
2026-05-07 01:09 44.44567 -64.10639 12149 ft 413 kts 59°
2026-05-07 01:10 44.46102 -64.07199 11907 ft 418 kts 61°
2026-05-07 01:10 44.47596 -64.03729 11326 ft 413 kts 62°
2026-05-07 01:10 44.49032 -64.00369 11180 ft 394 kts 62°
2026-05-07 01:10 44.50427 -63.97163 11011 ft 377 kts 62°
2026-05-07 01:11 44.51758 -63.94090 10858 ft 361 kts 62°
2026-05-07 01:11 44.53037 -63.91139 10707 ft 347 kts 62°
2026-05-07 01:11 44.54272 -63.88301 10556 ft 334 kts 62°
2026-05-07 01:11 44.55460 -63.85578 10432 ft 322 kts 62°
2026-05-07 01:12 44.56610 -63.82945 10290 ft 312 kts 62°
2026-05-07 01:12 44.57733 -63.80377 10187 ft 312 kts 62°
2026-05-07 01:12 44.58864 -63.77779 10071 ft 311 kts 62°
2026-05-07 01:12 44.59999 -63.75165 9787 ft 316 kts 62°
2026-05-07 01:13 44.61142 -63.72534 9485 ft 315 kts 62°
2026-05-07 01:13 44.62284 -63.69912 9176 ft 314 kts 62°
2026-05-07 01:13 44.63421 -63.67297 8860 ft 314 kts 62°
2026-05-07 01:13 44.64559 -63.64683 8520 ft 314 kts 62°
2026-05-07 01:14 44.65678 -63.62105 8192 ft 314 kts 62°
2026-05-07 01:14 44.66815 -63.59482 7838 ft 314 kts 62°
2026-05-07 01:14 44.68011 -63.56909 7485 ft 316 kts 52°
2026-05-07 01:14 44.69698 -63.54913 7158 ft 317 kts 35°
2026-05-07 01:15 44.71514 -63.53156 6836 ft 317 kts 35°
2026-05-07 01:15 44.73321 -63.51418 6537 ft 312 kts 35°
2026-05-07 01:15 44.74985 -63.49807 6264 ft 307 kts 35°
2026-05-07 01:15 44.76703 -63.48134 5998 ft 295 kts 35°
2026-05-07 01:16 44.77805 -63.47054 5805 ft 289 kts 35°
2026-05-07 01:16 44.79925 -63.44972 5544 ft 271 kts 35°
2026-05-07 01:16 44.81455 -63.43463 5442 ft 267 kts 36°
2026-05-07 01:16 44.82962 -63.41969 5316 ft 262 kts 36°
2026-05-07 01:17 44.84436 -63.40512 5223 ft 256 kts 36°
2026-05-07 01:17 44.85399 -63.39560 5162 ft 254 kts 36°
2026-05-07 01:17 44.86835 -63.38136 4948 ft 249 kts 36°
2026-05-07 01:17 44.88225 -63.36756 4788 ft 240 kts 35°
2026-05-07 01:18 44.89575 -63.35420 4657 ft 235 kts 36°
2026-05-07 01:18 44.90917 -63.34089 4519 ft 237 kts 36°
2026-05-07 01:18 44.92692 -63.32329 4340 ft 233 kts 36°
2026-05-07 01:18 44.94025 -63.31005 4232 ft 235 kts 36°
2026-05-07 01:19 44.94930 -63.30104 4136 ft 236 kts 35°
2026-05-07 01:19 44.96248 -63.28797 3980 ft 233 kts 36°
2026-05-07 01:19 44.97537 -63.27504 3829 ft 225 kts 36°
2026-05-07 01:19 44.98943 -63.26660 3689 ft 219 kts 359°
2026-05-07 01:20 45.00372 -63.27097 3613 ft 207 kts 319°
2026-05-07 01:20 45.01362 -63.28438 3524 ft 191 kts 291°
2026-05-07 01:20 45.01816 -63.30071 3393 ft 169 kts 270°
2026-05-07 01:20 45.01989 -63.31648 3279 ft 158 kts 266°
2026-05-07 01:21 45.02130 -63.33183 3216 ft 159 kts 266°
2026-05-07 01:21 45.02271 -63.34757 3132 ft 163 kts 265°
2026-05-07 01:21 45.02053 -63.36170 3016 ft 142 kts 223°
2026-05-07 01:21 45.01353 -63.37159 3003 ft 145 kts 228°
2026-05-07 01:22 45.00704 -63.38231 2994 ft 140 kts 220°
2026-05-07 01:22 45.00018 -63.39118 2987 ft 130 kts 220°
2026-05-07 01:22 44.99331 -63.39968 2946 ft 134 kts 217°
2026-05-07 01:22 44.98588 -63.40788 2769 ft 137 kts 214°
2026-05-07 01:23 44.97810 -63.41584 2602 ft 139 kts 214°
2026-05-07 01:23 44.97029 -63.42364 2435 ft 132 kts 214°
2026-05-07 01:23 44.96306 -63.43082 2243 ft 125 kts 214°
2026-05-07 01:23 44.95593 -63.43789 2091 ft 130 kts 214°
2026-05-07 01:24 44.94840 -63.44534 1909 ft 134 kts 214°
2026-05-07 01:24 44.94077 -63.45290 1738 ft 135 kts 214°
2026-05-07 01:24 44.93299 -63.46059 1542 ft 138 kts 214°
2026-05-07 01:24 44.92510 -63.46842 1363 ft 138 kts 215°
2026-05-07 01:25 44.91726 -63.47620 1187 ft 139 kts 214°
2026-05-07 01:25 44.90931 -63.48406 998 ft 139 kts 214°
2026-05-07 01:25 44.90143 -63.49173 830 ft 135 kts 215°
2026-05-07 01:25 44.89398 -63.49921 666 ft 131 kts 216°
2026-05-07 01:26 44.88669 -63.50659 457 ft 131 kts 214°
2026-05-07 01:26 44.88022 -63.51299 449 ft 88 kts 215°
2026-05-07 01:26 44.87687 -63.51619 448 ft 34 kts 215°
2026-05-07 01:26 44.87516 -63.51789 448 ft 24 kts 221°
2026-05-07 01:27 44.87446 -63.51969 449 ft 18 kts 263°
2026-05-07 01:27 44.87476 -63.52105 451 ft 13 kts 310°
2026-05-07 01:27 44.87556 -63.52079 451 ft 13 kts 31°
2026-05-07 01:27 44.87628 -63.52007 451 ft 12 kts 36°
2026-05-07 01:28 44.87697 -63.51939 451 ft 12 kts 35°
2026-05-07 01:28 44.87765 -63.51871 451 ft 12 kts 35°
2026-05-07 01:28 44.87831 -63.51805 451 ft 12 kts 35°
2026-05-07 01:28 44.87896 -63.51741 451 ft 11 kts 35°
2026-05-07 01:29 44.87959 -63.51679 451 ft 11 kts 35°
2026-05-07 01:29 44.88020 -63.51618 451 ft 11 kts 35°
2026-05-07 01:29 44.88080 -63.51560 451 ft 10 kts 35°
2026-05-07 01:29 44.88137 -63.51503 451 ft 10 kts 35°
2026-05-07 01:30 44.88193 -63.51448 451 ft 10 kts 35°
2026-05-07 01:30 44.88247 -63.51394 451 ft 9 kts 35°
2026-05-07 01:30 44.88300 -63.51341 449 ft 9 kts 35°
2026-05-07 01:30 44.88352 -63.51289 451 ft 9 kts 38°
2026-05-07 01:31 44.88399 -63.51234 451 ft 9 kts 38°
2026-05-07 01:31 44.88453 -63.51204 451 ft 8 kts
2026-05-07 01:31 44.88511 -63.51216 451 ft 8 kts 349°
2026-05-07 01:31 44.88566 -63.51229 451 ft 8 kts 350°
2026-05-07 01:32 44.88619 -63.51243 451 ft 6 kts 348°
2026-05-07 01:32 44.88656 -63.51254 451 ft 5 kts 350°
2026-05-07 01:32 44.88692 -63.51264 451 ft 5 kts 347°
2026-05-07 01:32 44.88724 -63.51284 451 ft 5 kts 315°
2026-05-07 01:33 44.88743 -63.51327 451 ft 5 kts 297°
2026-05-07 01:33 44.88757 -63.51371 451 ft 4 kts 295°
2026-05-07 01:33 44.88766 -63.51396 451 ft 2 kts 296°
2026-05-07 01:33 44.88769 -63.51404 451 ft 0 kts 297°